Flag for Finland Weather past 2 weeks in Rovaniemi, Finland

Now
32 °F

Fog.


Feels Like: 27 °F
Forecast: 14 / 33 °F
Wind: 5 mph from East

Location: Rovaniemi Airport

Current Time: Mar 4, 2015 at 5:09:40 AM

Latest Report: Mar 4, 2015 at 4:20 AM


Visibility: 0 mi

Pressure: 29.62 "Hg

Humidity: 100%

Dew point: 32 °F

Location of RovaniemiLocation

Historic Weather in Rovaniemi — Graph

°F

Rovaniemi temperature yesterday

Maximum temperature yesterday: 32 °F (at 12:20 AM)
Minimum temperature yesterday: 32 °F (at 12:20 AM)
Average temperature yesterday: 32 °F

Past Weeks' High & Low Weather Summary

 TemperatureHumidityPressure
High36 °F (Feb 20, 1:20 AM)100% (Feb 17, 12:20 PM)30.07 "Hg (Feb 17, 12:20 PM)
Low16 °F (Feb 23, 7:20 AM)69% (Feb 18, 2:20 PM)29.00 "Hg (Feb 20, 4:20 PM)
Average30 °F95%29.48 "Hg
* Reported Feb 17 3:20 AM — Mar 4 3:50 AM, Rovaniemi, Weather by CustomWeather, © 2015

Note: Actual official high and low records may vary slightly from our data, if they occured in-between our weather recording intervals... More about our weather records

Advertising

Rovaniemi weather history for previous 24 hours

 ConditionsComfort  
Time TempWeatherWind HumidityBarometerVisibility
3:50 AM
Wed, Mar 4
32 °FFog.6 mph100%29.62 "Hg0 mi
3:20 AM32 °FFog.3 mph100%29.65 "Hg0 mi
2:50 AM32 °FFog.3 mph100%29.65 "Hg1 mi
2:20 AM32 °FFog.3 mph100%29.65 "Hg0 mi
1:50 AM32 °FFog.3 mph100%29.65 "Hg0 mi
1:20 AM32 °FFog.3 mph100%29.65 "Hg0 mi
12:50 AM32 °FFog.3 mph100%29.65 "Hg0 mi
12:20 AM32 °FFog.2 mph100%29.65 "Hg0 mi
11:20 PM
Tue, Mar 3
32 °FIce fog.3 mph100%29.65 "Hg2 mi
10:50 PM32 °FPassing clouds.2 mph100%29.65 "Hg4 mi
10:20 PM32 °FPassing clouds.5 mph100%29.65 "Hg6 mi
9:50 PM32 °FSnow flurries. Passing clouds.6 mph100%29.65 "HgN/A
9:20 PM32 °FLight snow. Passing clouds.5 mph100%29.62 "Hg6 mi
8:50 PM32 °FLight snow. Passing clouds.5 mph100%29.62 "Hg5 mi
8:20 PM32 °FPassing clouds.5 mph100%29.62 "Hg5 mi
7:50 PM32 °FPassing clouds.5 mph100%29.62 "HgN/A
7:20 PM32 °FMostly cloudy.5 mph100%29.62 "HgN/A
6:50 PM32 °FPassing clouds.5 mph100%29.62 "HgN/A
6:20 PM32 °FPassing clouds.5 mph100%29.62 "HgN/A
5:50 PM32 °FPassing clouds.5 mph100%29.59 "HgN/A
5:20 PM32 °FBroken clouds.5 mph100%29.59 "HgN/A
4:50 PM32 °FBroken clouds.6 mph100%29.59 "HgN/A
4:20 PM32 °FLight fog.5 mph100%29.59 "Hg6 mi
3:50 PM32 °FPartly sunny.5 mph100%29.59 "Hg3 mi
3:20 PM32 °FIce fog.6 mph100%29.59 "Hg1 mi
2:50 PM32 °FLight snow. Ice fog.8 mph100%29.56 "Hg2 mi
2:20 PM32 °FSnow flurries. Mostly cloudy.6 mph100%29.56 "Hg5 mi
1:50 PM32 °FLight snow. Mostly cloudy.6 mph100%29.56 "HgN/A
1:20 PM32 °FLight snow. Mostly cloudy.5 mph100%29.56 "Hg5 mi
12:50 PM32 °FLight snow. Mostly cloudy.6 mph100%29.56 "HgN/A
12:20 PM32 °FLight snow. Mostly cloudy.6 mph100%29.53 "Hg5 mi
11:50 AM32 °FLight snow. Partly sunny.6 mph100%29.53 "Hg4 mi
11:20 AM32 °FLight snow. Ice fog.7 mph100%29.53 "Hg1 mi
10:50 AM32 °FLight snow. Ice fog.6 mph100%29.53 "Hg1 mi
10:20 AM32 °FLight rain. Ice fog.6 mph100%29.53 "Hg1 mi
9:50 AM32 °FDrizzle. Ice fog.7 mph100%29.50 "Hg1 mi
9:27 AM32 °FLight snow. Ice fog.6 mph100%29.50 "Hg1 mi
9:20 AM32 °FLight snow. Ice fog.6 mph100%29.50 "Hg1 mi
8:50 AM32 °FDrizzle. Ice fog.7 mph100%29.50 "Hg1 mi
8:20 AM32 °FDrizzle. Fog.8 mph100%29.50 "Hg1 mi
7:50 AM32 °FLight freezing rain. Ice fog.8 mph100%29.50 "Hg1 mi
7:20 AM32 °FIce fog.8 mph100%29.47 "Hg1 mi
6:50 AM32 °FIce fog.7 mph100%29.47 "Hg1 mi
6:20 AM32 °FIce fog.8 mph100%29.47 "Hg2 mi
5:50 AM32 °FPartly cloudy.7 mph100%29.47 "Hg4 mi
5:20 AM32 °FPassing clouds.7 mph100%29.47 "Hg6 mi
Weather by CustomWeather, © 2015

See weather overviewHow to use our weather pages